Year,Month,Day,Hour,Minute,Value (Times are PST for windgust in km/hr)
2016,02,28,00,00,3.20
2016,02,28,00,01,1.60
2016,02,28,00,02,1.60
2016,02,28,00,03,1.60
2016,02,28,00,04,3.20
2016,02,28,00,05,3.20
2016,02,28,00,06,1.60
2016,02,28,00,07,3.20
2016,02,28,00,08,3.20
2016,02,28,00,09,4.80
2016,02,28,00,10,8.10
2016,02,28,00,11,6.40
2016,02,28,00,12,6.40
2016,02,28,00,13,4.80
2016,02,28,00,14,4.80
2016,02,28,00,15,4.80
2016,02,28,00,17,9.60
2016,02,28,00,18,11.30
2016,02,28,00,19,8.10
2016,02,28,00,20,8.10
2016,02,28,00,21,9.60
2016,02,28,00,22,8.10
2016,02,28,00,23,9.60
2016,02,28,00,24,4.80
2016,02,28,00,25,9.60
2016,02,28,00,26,6.40
2016,02,28,00,27,9.60
2016,02,28,00,28,8.10
2016,02,28,00,29,6.40
2016,02,28,00,30,4.80
2016,02,28,00,31,4.80
2016,02,28,00,32,3.20
2016,02,28,00,33,3.20
2016,02,28,00,37,4.80
2016,02,28,00,38,3.20
2016,02,28,00,39,4.80
2016,02,28,00,40,6.40
2016,02,28,00,41,6.40
2016,02,28,00,42,6.40
2016,02,28,00,43,3.20
2016,02,28,00,44,4.80
2016,02,28,00,45,4.80
2016,02,28,00,46,6.40
2016,02,28,00,47,4.80
2016,02,28,00,48,6.40
2016,02,28,00,49,3.20
2016,02,28,00,50,3.20
2016,02,28,00,51,6.40
2016,02,28,00,52,4.80
2016,02,28,00,53,3.20
2016,02,28,00,54,3.20
2016,02,28,00,55,3.20
2016,02,28,00,56,1.60
2016,02,28,00,57,4.80
2016,02,28,00,58,4.80
2016,02,28,00,59,4.80
2016,02,28,01,00,3.20
2016,02,28,01,01,1.60
2016,02,28,01,02,1.60
2016,02,28,01,04,1.60
2016,02,28,01,05,3.20
2016,02,28,01,06,1.60
2016,02,28,01,08,1.60
2016,02,28,01,09,3.20
2016,02,28,01,10,3.20
2016,02,28,01,11,3.20
2016,02,28,01,13,4.80
2016,02,28,01,14,4.80
2016,02,28,01,15,4.80
2016,02,28,01,16,3.20
2016,02,28,01,19,3.20
2016,02,28,01,20,3.20
2016,02,28,01,21,3.20
2016,02,28,01,24,1.60
2016,02,28,01,26,6.40
2016,02,28,01,27,3.20
2016,02,28,01,28,4.80
2016,02,28,01,29,3.20
2016,02,28,01,30,4.80
2016,02,28,01,31,6.40
2016,02,28,01,32,3.20
2016,02,28,01,33,3.20
2016,02,28,01,34,1.60
2016,02,28,01,35,1.60
2016,02,28,01,36,1.60
2016,02,28,01,37,3.20
2016,02,28,01,38,4.80
2016,02,28,01,39,6.40
2016,02,28,01,40,1.60
2016,02,28,01,41,3.20
2016,02,28,01,42,1.60
2016,02,28,01,44,1.60
2016,02,28,01,45,3.20
2016,02,28,01,46,4.80
2016,02,28,01,47,3.20
2016,02,28,01,49,1.60
2016,02,28,01,50,3.20
2016,02,28,01,51,1.60
2016,02,28,01,53,3.20
2016,02,28,01,54,3.20
2016,02,28,01,55,4.80
2016,02,28,01,56,3.20
2016,02,28,01,57,1.60
2016,02,28,02,00,1.60
2016,02,28,02,01,3.20
2016,02,28,02,03,1.60
2016,02,28,02,08,1.60
2016,02,28,02,21,1.60
2016,02,28,02,22,3.20
2016,02,28,02,23,4.80
2016,02,28,02,24,3.20
2016,02,28,02,25,3.20
2016,02,28,02,26,6.40
2016,02,28,02,27,4.80
2016,02,28,02,28,3.20
2016,02,28,02,29,6.40
2016,02,28,02,30,6.40
2016,02,28,02,31,6.40
2016,02,28,02,32,6.40
2016,02,28,02,33,6.40
2016,02,28,02,34,9.60
2016,02,28,02,35,8.10
2016,02,28,02,36,6.40
2016,02,28,02,37,1.60
2016,02,28,02,38,6.40
2016,02,28,02,39,8.10
2016,02,28,02,40,3.20
2016,02,28,02,41,6.40
2016,02,28,02,42,8.10
2016,02,28,02,43,6.40
2016,02,28,02,44,11.30
2016,02,28,02,45,6.40
2016,02,28,02,46,4.80
2016,02,28,02,47,6.40
2016,02,28,02,48,3.20
2016,02,28,02,49,12.90
2016,02,28,02,50,3.20
2016,02,28,02,51,6.40
2016,02,28,02,52,3.20
2016,02,28,02,53,1.60
2016,02,28,02,54,4.80
2016,02,28,02,55,3.20
2016,02,28,02,56,3.20
2016,02,28,02,57,3.20
2016,02,28,02,58,3.20
2016,02,28,02,59,3.20
2016,02,28,03,00,3.20
2016,02,28,03,01,3.20
2016,02,28,03,02,3.20
2016,02,28,03,03,3.20
2016,02,28,03,05,1.60
2016,02,28,03,12,3.20
2016,02,28,03,13,4.80
2016,02,28,03,14,6.40
2016,02,28,03,15,6.40
2016,02,28,03,16,3.20
2016,02,28,03,17,3.20
2016,02,28,03,18,1.60
2016,02,28,03,19,1.60
2016,02,28,03,21,3.20
2016,02,28,03,22,3.20
2016,02,28,03,26,1.60
2016,02,28,03,27,3.20
2016,02,28,03,28,3.20
2016,02,28,03,29,3.20
2016,02,28,03,30,6.40
2016,02,28,03,31,3.20
2016,02,28,03,32,3.20
2016,02,28,03,33,3.20
2016,02,28,03,35,3.20
2016,02,28,03,37,3.20
2016,02,28,03,38,1.60
2016,02,28,03,41,1.60
2016,02,28,03,42,1.60
2016,02,28,03,53,1.60
2016,02,28,04,09,1.60
2016,02,28,04,11,1.60
2016,02,28,04,15,1.60
2016,02,28,04,16,6.40
2016,02,28,04,17,4.80
2016,02,28,04,18,1.60
2016,02,28,04,19,3.20
2016,02,28,04,20,1.60
2016,02,28,04,24,1.60
2016,02,28,04,25,6.40
2016,02,28,04,26,4.80
2016,02,28,04,27,1.60
2016,02,28,04,28,3.20
2016,02,28,04,29,1.60
2016,02,28,04,34,3.20
2016,02,28,04,35,3.20
2016,02,28,04,38,3.20
2016,02,28,04,39,4.80
2016,02,28,04,40,4.80
2016,02,28,04,41,4.80
2016,02,28,04,42,3.20
2016,02,28,04,43,8.10
2016,02,28,04,44,6.40
2016,02,28,04,45,4.80
2016,02,28,04,46,6.40
2016,02,28,04,47,8.10
2016,02,28,04,48,8.10
2016,02,28,04,49,9.60
2016,02,28,04,50,9.60
2016,02,28,04,51,3.20
2016,02,28,04,52,4.80
2016,02,28,04,53,3.20
2016,02,28,04,54,6.40
2016,02,28,04,55,3.20
2016,02,28,04,56,8.10
2016,02,28,04,57,8.10
2016,02,28,04,58,6.40
2016,02,28,04,59,4.80
2016,02,28,05,00,4.80
2016,02,28,05,01,3.20
2016,02,28,05,02,3.20
2016,02,28,05,03,6.40
2016,02,28,05,04,8.10
2016,02,28,05,05,6.40
2016,02,28,05,06,4.80
2016,02,28,05,07,6.40
2016,02,28,05,08,6.40
2016,02,28,05,09,4.80
2016,02,28,05,10,3.20
2016,02,28,05,11,3.20
2016,02,28,05,12,3.20
2016,02,28,05,13,3.20
2016,02,28,05,14,4.80
2016,02,28,05,15,3.20
2016,02,28,05,16,3.20
2016,02,28,05,17,4.80
2016,02,28,05,18,1.60
2016,02,28,05,19,1.60
2016,02,28,05,22,1.60
2016,02,28,05,23,3.20
2016,02,28,05,24,4.80
2016,02,28,05,25,1.60
2016,02,28,05,28,3.20
2016,02,28,05,29,1.60
2016,02,28,05,30,1.60
2016,02,28,05,33,1.60
2016,02,28,05,34,1.60
2016,02,28,05,36,1.60
2016,02,28,05,37,3.20
2016,02,28,05,38,3.20
2016,02,28,05,39,1.60
2016,02,28,05,40,1.60
2016,02,28,05,45,1.60
2016,02,28,06,16,1.60
2016,02,28,06,22,1.60
2016,02,28,06,23,4.80
2016,02,28,06,24,4.80
2016,02,28,06,25,1.60
2016,02,28,06,26,4.80
2016,02,28,06,27,3.20
2016,02,28,06,29,1.60
2016,02,28,06,30,3.20
2016,02,28,06,31,4.80
2016,02,28,06,32,4.80
2016,02,28,06,33,3.20
2016,02,28,06,34,8.10
2016,02,28,06,35,6.40
2016,02,28,06,36,4.80
2016,02,28,06,37,11.30
2016,02,28,06,38,12.90
2016,02,28,06,39,9.60
2016,02,28,06,40,6.40
2016,02,28,06,41,6.40
2016,02,28,06,42,6.40
2016,02,28,06,43,8.10
2016,02,28,06,44,9.60
2016,02,28,06,45,9.60
2016,02,28,06,46,4.80
2016,02,28,06,47,4.80
2016,02,28,06,48,3.20
2016,02,28,06,49,1.60
2016,02,28,06,50,4.80
2016,02,28,06,51,6.40
2016,02,28,06,52,4.80
2016,02,28,06,53,4.80
2016,02,28,06,54,4.80
2016,02,28,06,55,1.60
2016,02,28,06,56,1.60
2016,02,28,06,57,1.60
2016,02,28,06,58,4.80
2016,02,28,06,59,4.80
2016,02,28,07,00,6.40
2016,02,28,07,01,4.80
2016,02,28,07,02,3.20
2016,02,28,07,03,4.80
2016,02,28,07,04,6.40
2016,02,28,07,05,3.20
2016,02,28,07,06,8.10
2016,02,28,07,07,1.60
2016,02,28,07,08,8.10
2016,02,28,07,09,8.10
2016,02,28,07,10,6.40
2016,02,28,07,11,1.60
2016,02,28,07,12,1.60
2016,02,28,07,13,1.60
2016,02,28,07,14,3.20
2016,02,28,07,16,3.20
2016,02,28,07,17,9.60
2016,02,28,07,18,4.80
2016,02,28,07,19,3.20
2016,02,28,07,20,4.80
2016,02,28,07,21,6.40
2016,02,28,07,22,6.40
2016,02,28,07,23,6.40
2016,02,28,07,24,6.40
2016,02,28,07,25,8.10
2016,02,28,07,26,8.10
2016,02,28,07,27,8.10
2016,02,28,07,28,6.40
2016,02,28,07,29,6.40
2016,02,28,07,30,3.20
2016,02,28,07,31,14.50
2016,02,28,07,32,16.10
2016,02,28,07,33,8.10
2016,02,28,07,34,8.10
2016,02,28,07,35,4.80
2016,02,28,07,36,1.60
2016,02,28,07,37,6.40
2016,02,28,07,38,11.30
2016,02,28,07,39,8.10
2016,02,28,07,40,17.70
2016,02,28,07,41,9.60
2016,02,28,07,42,12.90
2016,02,28,07,43,8.10
2016,02,28,07,44,11.30
2016,02,28,07,45,11.30
2016,02,28,07,46,6.40
2016,02,28,07,47,12.90
2016,02,28,07,48,8.10
2016,02,28,07,49,8.10
2016,02,28,07,50,4.80
2016,02,28,07,51,6.40
2016,02,28,07,52,3.20
2016,02,28,07,53,14.50
2016,02,28,07,54,8.10
2016,02,28,07,55,3.20
2016,02,28,07,56,8.10
2016,02,28,07,57,4.80
2016,02,28,07,58,3.20
2016,02,28,07,59,8.10
2016,02,28,08,00,1.60
2016,02,28,08,01,4.80
2016,02,28,08,02,6.40
2016,02,28,08,03,14.50
2016,02,28,08,04,4.80
2016,02,28,08,05,8.10
2016,02,28,08,06,9.60
2016,02,28,08,07,9.60
2016,02,28,08,08,3.20
2016,02,28,08,09,6.40
2016,02,28,08,10,9.60
2016,02,28,08,11,8.10
2016,02,28,08,12,9.60
2016,02,28,08,13,11.30
2016,02,28,08,14,12.90
2016,02,28,08,15,11.30
2016,02,28,08,16,9.60
2016,02,28,08,17,4.80
2016,02,28,08,18,6.40
2016,02,28,08,19,3.20
2016,02,28,08,20,1.60
2016,02,28,08,21,3.20
2016,02,28,08,22,4.80
2016,02,28,08,23,3.20
2016,02,28,08,24,3.20
2016,02,28,08,25,3.20
2016,02,28,08,26,1.60
2016,02,28,08,27,6.40
2016,02,28,08,28,9.60
2016,02,28,08,29,4.80
2016,02,28,08,30,4.80
2016,02,28,08,31,4.80
2016,02,28,08,32,6.40
2016,02,28,08,33,4.80
2016,02,28,08,34,3.20
2016,02,28,08,35,4.80
2016,02,28,08,36,1.60
2016,02,28,08,38,1.60
2016,02,28,08,39,1.60
2016,02,28,08,40,8.10
2016,02,28,08,41,4.80
2016,02,28,08,43,8.10
2016,02,28,08,44,6.40
2016,02,28,08,45,4.80
2016,02,28,08,46,3.20
2016,02,28,08,48,1.60
2016,02,28,08,52,3.20
2016,02,28,08,55,3.20
2016,02,28,08,56,3.20
2016,02,28,08,57,4.80
2016,02,28,08,58,6.40
2016,02,28,08,59,1.60
2016,02,28,09,01,3.20
2016,02,28,09,02,3.20
2016,02,28,09,05,1.60
2016,02,28,09,06,3.20
2016,02,28,09,07,3.20
2016,02,28,09,08,8.10
2016,02,28,09,09,6.40
2016,02,28,09,10,4.80
2016,02,28,09,11,4.80
2016,02,28,09,12,8.10
2016,02,28,09,13,4.80
2016,02,28,09,14,6.40
2016,02,28,09,15,8.10
2016,02,28,09,16,8.10
2016,02,28,09,17,6.40
2016,02,28,09,18,6.40
2016,02,28,09,19,14.50
2016,02,28,09,20,6.40
2016,02,28,09,21,9.60
2016,02,28,09,22,9.60
2016,02,28,09,23,16.10
2016,02,28,09,24,9.60
2016,02,28,09,25,12.90
2016,02,28,09,26,8.10
2016,02,28,09,27,11.30
2016,02,28,09,28,9.60
2016,02,28,09,29,8.10
2016,02,28,09,30,11.30
2016,02,28,09,31,6.40
2016,02,28,09,32,9.60
2016,02,28,09,33,9.60
2016,02,28,09,34,9.60
2016,02,28,09,35,8.10
2016,02,28,09,36,12.90
2016,02,28,09,37,11.30
2016,02,28,09,38,9.60
2016,02,28,09,39,12.90
2016,02,28,09,40,16.10
2016,02,28,09,41,9.60
2016,02,28,09,42,9.60
2016,02,28,09,43,17.70
2016,02,28,09,44,8.10
2016,02,28,09,45,11.30
2016,02,28,09,46,8.10
2016,02,28,09,47,8.10
2016,02,28,09,48,6.40
2016,02,28,09,49,14.50
2016,02,28,09,50,8.10
2016,02,28,09,51,8.10
2016,02,28,09,52,17.70
2016,02,28,09,53,12.90
2016,02,28,09,54,11.30
2016,02,28,09,55,9.60
2016,02,28,09,56,16.10
2016,02,28,09,57,9.60
2016,02,28,09,58,16.10
2016,02,28,09,59,9.60
2016,02,28,10,00,6.40
2016,02,28,10,01,20.90
2016,02,28,10,02,19.30
2016,02,28,10,03,8.10
2016,02,28,10,04,9.60
2016,02,28,10,05,9.60
2016,02,28,10,06,27.40
2016,02,28,10,07,30.60
2016,02,28,10,08,9.60
2016,02,28,10,09,14.50
2016,02,28,10,10,8.10
2016,02,28,10,11,12.90
2016,02,28,10,12,11.30
2016,02,28,10,13,6.40
2016,02,28,10,14,17.70
2016,02,28,10,15,24.20
2016,02,28,10,16,32.20
2016,02,28,10,17,29.00
2016,02,28,10,18,8.10
2016,02,28,10,19,12.90
2016,02,28,10,20,20.90
2016,02,28,10,21,9.60
2016,02,28,10,22,9.60
2016,02,28,10,23,14.50
2016,02,28,10,24,16.10
2016,02,28,10,25,9.60
2016,02,28,10,26,16.10
2016,02,28,10,27,16.10
2016,02,28,10,28,6.40
2016,02,28,10,29,6.40
2016,02,28,10,30,9.60
2016,02,28,10,31,20.90
2016,02,28,10,32,17.70
2016,02,28,10,33,20.90
2016,02,28,10,34,8.10
2016,02,28,10,35,12.90
2016,02,28,10,36,20.90
2016,02,28,10,37,14.50
2016,02,28,10,38,12.90
2016,02,28,10,39,8.10
2016,02,28,10,40,8.10
2016,02,28,10,41,6.40
2016,02,28,10,42,14.50
2016,02,28,10,43,12.90
2016,02,28,10,44,11.30
2016,02,28,10,45,14.50
2016,02,28,10,46,20.90
2016,02,28,10,47,11.30
2016,02,28,10,48,16.10
2016,02,28,10,49,9.60
2016,02,28,10,50,33.80
2016,02,28,10,51,17.70
2016,02,28,10,52,17.70
2016,02,28,10,53,16.10
2016,02,28,10,54,6.40
2016,02,28,10,55,11.30
2016,02,28,10,56,6.40
2016,02,28,10,57,9.60
2016,02,28,10,58,17.70
2016,02,28,10,59,20.90
2016,02,28,11,00,11.30
2016,02,28,11,01,9.60
2016,02,28,11,02,8.10
2016,02,28,11,03,6.40
2016,02,28,11,04,9.60
2016,02,28,11,05,9.60
2016,02,28,11,06,12.90
2016,02,28,11,07,20.90
2016,02,28,11,08,14.50
2016,02,28,11,09,16.10
2016,02,28,11,10,11.30
2016,02,28,11,11,8.10
2016,02,28,11,12,22.50
2016,02,28,11,13,12.90
2016,02,28,11,14,14.50
2016,02,28,11,15,12.90
2016,02,28,11,16,17.70
2016,02,28,11,17,11.30
2016,02,28,11,18,14.50
2016,02,28,11,19,14.50
2016,02,28,11,20,3.20
2016,02,28,11,21,6.40
2016,02,28,11,22,12.90
2016,02,28,11,23,12.90
2016,02,28,11,24,9.60
2016,02,28,11,25,4.80
2016,02,28,11,26,4.80
2016,02,28,11,27,3.20
2016,02,28,11,28,3.20
2016,02,28,11,29,4.80
2016,02,28,11,30,6.40
2016,02,28,11,31,12.90
2016,02,28,11,32,16.10
2016,02,28,11,33,29.00
2016,02,28,11,34,24.20
2016,02,28,11,35,20.90
2016,02,28,11,36,14.50
2016,02,28,11,37,14.50
2016,02,28,11,38,17.70
2016,02,28,11,39,25.70
2016,02,28,11,40,24.20
2016,02,28,11,41,3.20
2016,02,28,11,42,22.50
2016,02,28,11,43,20.90
2016,02,28,11,44,12.90
2016,02,28,11,45,22.50
2016,02,28,11,46,17.70
2016,02,28,11,47,12.90
2016,02,28,11,48,12.90
2016,02,28,11,49,12.90
2016,02,28,11,50,22.50
2016,02,28,11,51,30.60
2016,02,28,11,52,17.70
2016,02,28,11,53,29.00
2016,02,28,11,54,11.30
2016,02,28,11,55,27.40
2016,02,28,11,56,30.60
2016,02,28,11,57,22.50
2016,02,28,11,58,17.70
2016,02,28,11,59,20.90
2016,02,28,12,00,22.50
2016,02,28,12,01,30.60
2016,02,28,12,02,14.50
2016,02,28,12,03,32.20
2016,02,28,12,04,19.30
2016,02,28,12,05,14.50
2016,02,28,12,06,29.00
2016,02,28,12,07,17.70
2016,02,28,12,08,12.90
2016,02,28,12,09,8.10
2016,02,28,12,10,11.30
2016,02,28,12,11,8.10
2016,02,28,12,12,8.10
2016,02,28,12,13,14.50
2016,02,28,12,14,9.60
2016,02,28,12,15,9.60
2016,02,28,12,16,33.80
2016,02,28,12,17,29.00
2016,02,28,12,18,27.40
2016,02,28,12,19,30.60
2016,02,28,12,20,20.90
2016,02,28,12,21,19.30
2016,02,28,12,22,11.30
2016,02,28,12,23,12.90
2016,02,28,12,24,6.40
2016,02,28,12,25,16.10
2016,02,28,12,26,11.30
2016,02,28,12,27,8.10
2016,02,28,12,28,8.10
2016,02,28,12,29,9.60
2016,02,28,12,30,22.50
2016,02,28,12,31,6.40
2016,02,28,12,32,3.20
2016,02,28,12,33,14.50
2016,02,28,12,34,22.50
2016,02,28,12,35,20.90
2016,02,28,12,36,6.40
2016,02,28,12,37,17.70
2016,02,28,12,38,9.60
2016,02,28,12,39,17.70
2016,02,28,12,40,11.30
2016,02,28,12,41,8.10
2016,02,28,12,42,9.60
2016,02,28,12,43,9.60
2016,02,28,12,44,14.50
2016,02,28,12,45,6.40
2016,02,28,12,46,4.80
2016,02,28,12,47,4.80
2016,02,28,12,48,11.30
2016,02,28,12,49,6.40
2016,02,28,12,50,12.90
2016,02,28,12,51,11.30
2016,02,28,12,52,8.10
2016,02,28,12,53,4.80
2016,02,28,12,54,1.60
2016,02,28,12,55,3.20
2016,02,28,12,56,6.40
2016,02,28,12,57,6.40
2016,02,28,12,58,3.20
2016,02,28,12,59,6.40
2016,02,28,13,00,3.20
2016,02,28,13,01,6.40
2016,02,28,13,02,8.10
2016,02,28,13,03,8.10
2016,02,28,13,04,8.10
2016,02,28,13,05,17.70
2016,02,28,13,06,19.30
2016,02,28,13,07,17.70
2016,02,28,13,08,19.30
2016,02,28,13,09,19.30
2016,02,28,13,10,12.90
2016,02,28,13,11,11.30
2016,02,28,13,12,12.90
2016,02,28,13,13,9.60
2016,02,28,13,14,9.60
2016,02,28,13,15,12.90
2016,02,28,13,16,6.40
2016,02,28,13,17,9.60
2016,02,28,13,18,12.90
2016,02,28,13,19,12.90
2016,02,28,13,20,6.40
2016,02,28,13,21,4.80
2016,02,28,13,22,8.10
2016,02,28,13,23,4.80
2016,02,28,13,24,6.40
2016,02,28,13,25,14.50
2016,02,28,13,26,12.90
2016,02,28,13,27,20.90
2016,02,28,13,28,12.90
2016,02,28,13,29,8.10
2016,02,28,13,30,9.60
2016,02,28,13,31,19.30
2016,02,28,13,32,24.20
2016,02,28,13,33,11.30
2016,02,28,13,34,16.10
2016,02,28,13,35,14.50
2016,02,28,13,36,19.30
2016,02,28,13,37,11.30
2016,02,28,13,38,9.60
2016,02,28,13,39,11.30
2016,02,28,13,40,17.70
2016,02,28,13,41,17.70
2016,02,28,13,42,12.90
2016,02,28,13,43,11.30
2016,02,28,13,44,12.90
2016,02,28,13,45,11.30
2016,02,28,13,46,12.90
2016,02,28,13,47,11.30
2016,02,28,13,48,14.50
2016,02,28,13,49,12.90
2016,02,28,13,50,6.40
2016,02,28,13,51,3.20
2016,02,28,13,52,9.60
2016,02,28,13,53,12.90
2016,02,28,13,54,8.10
2016,02,28,13,55,9.60
2016,02,28,13,56,12.90
2016,02,28,13,57,12.90
2016,02,28,13,58,8.10
2016,02,28,13,59,3.20
2016,02,28,14,00,8.10
2016,02,28,14,01,8.10
2016,02,28,14,02,11.30
2016,02,28,14,03,6.40
2016,02,28,14,04,14.50
2016,02,28,14,05,11.30
2016,02,28,14,06,11.30
2016,02,28,14,07,11.30
2016,02,28,14,08,19.30
2016,02,28,14,09,19.30
2016,02,28,14,10,9.60
2016,02,28,14,11,9.60
2016,02,28,14,12,17.70
2016,02,28,14,13,19.30
2016,02,28,14,14,12.90
2016,02,28,14,15,14.50
2016,02,28,14,16,14.50
2016,02,28,14,17,19.30
2016,02,28,14,18,8.10
2016,02,28,14,19,14.50
2016,02,28,14,20,19.30
2016,02,28,14,21,16.10
2016,02,28,14,22,11.30
2016,02,28,14,23,16.10
2016,02,28,14,24,11.30
2016,02,28,14,25,16.10
2016,02,28,14,26,24.20
2016,02,28,14,27,17.70
2016,02,28,14,28,17.70
2016,02,28,14,29,20.90
2016,02,28,14,30,20.90
2016,02,28,14,31,19.30
2016,02,28,14,32,17.70
2016,02,28,14,33,17.70
2016,02,28,14,34,12.90
2016,02,28,14,35,17.70
2016,02,28,14,36,27.40
2016,02,28,14,37,27.40
2016,02,28,14,38,11.30
2016,02,28,14,39,19.30
2016,02,28,14,40,29.00
2016,02,28,14,41,30.60
2016,02,28,14,42,16.10
2016,02,28,14,43,11.30
2016,02,28,14,44,24.20
2016,02,28,14,45,48.30
2016,02,28,14,46,22.50
2016,02,28,14,47,33.80
2016,02,28,14,48,22.50
2016,02,28,14,49,14.50
2016,02,28,14,50,22.50
2016,02,28,14,51,12.90
2016,02,28,14,52,19.30
2016,02,28,14,53,22.50
2016,02,28,14,54,12.90
2016,02,28,14,55,12.90
2016,02,28,14,56,20.90
2016,02,28,14,57,20.90
2016,02,28,14,58,32.20
2016,02,28,14,59,22.50
2016,02,28,15,00,19.30
2016,02,28,15,01,33.80
2016,02,28,15,02,29.00
2016,02,28,15,03,22.50
2016,02,28,15,04,17.70
2016,02,28,15,05,11.30
2016,02,28,15,06,20.90
2016,02,28,15,07,30.60
2016,02,28,15,08,19.30
2016,02,28,15,09,20.90
2016,02,28,15,10,17.70
2016,02,28,15,11,11.30
2016,02,28,15,12,25.70
2016,02,28,15,13,27.40
2016,02,28,15,14,12.90
2016,02,28,15,15,32.20
2016,02,28,15,16,17.70
2016,02,28,15,17,24.20
2016,02,28,15,18,25.70
2016,02,28,15,19,8.10
2016,02,28,15,20,16.10
2016,02,28,15,21,17.70
2016,02,28,15,22,22.50
2016,02,28,15,23,27.40
2016,02,28,15,24,17.70
2016,02,28,15,25,20.90
2016,02,28,15,26,19.30
2016,02,28,15,27,14.50
2016,02,28,15,28,11.30
2016,02,28,15,29,14.50
2016,02,28,15,30,25.70
2016,02,28,15,31,24.20
2016,02,28,15,32,20.90
2016,02,28,15,33,37.00
2016,02,28,15,34,9.60
2016,02,28,15,35,20.90
2016,02,28,15,36,14.50
2016,02,28,15,37,25.70
2016,02,28,15,38,27.40
2016,02,28,15,39,22.50
2016,02,28,15,40,20.90
2016,02,28,15,41,19.30
2016,02,28,15,42,16.10
2016,02,28,15,43,14.50
2016,02,28,15,44,22.50
2016,02,28,15,45,17.70
2016,02,28,15,46,16.10
2016,02,28,15,47,24.20
2016,02,28,15,48,12.90
2016,02,28,15,49,8.10
2016,02,28,15,50,12.90
2016,02,28,15,51,6.40
2016,02,28,15,52,20.90
2016,02,28,15,53,11.30
2016,02,28,15,54,22.50
2016,02,28,15,55,25.70
2016,02,28,15,56,16.10
2016,02,28,15,57,12.90
2016,02,28,15,58,12.90
2016,02,28,15,59,14.50
2016,02,28,16,00,6.40
2016,02,28,16,01,8.10
2016,02,28,16,02,19.30
2016,02,28,16,03,24.20
2016,02,28,16,04,9.60
2016,02,28,16,05,12.90
2016,02,28,16,06,37.00
2016,02,28,16,07,24.20
2016,02,28,16,08,20.90
2016,02,28,16,09,12.90
2016,02,28,16,10,16.10
2016,02,28,16,11,12.90
2016,02,28,16,12,9.60
2016,02,28,16,13,17.70
2016,02,28,16,14,14.50
2016,02,28,16,15,12.90
2016,02,28,16,16,11.30
2016,02,28,16,17,9.60
2016,02,28,16,18,12.90
2016,02,28,16,19,17.70
2016,02,28,16,20,11.30
2016,02,28,16,21,9.60
2016,02,28,16,22,11.30
2016,02,28,16,23,19.30
2016,02,28,16,24,11.30
2016,02,28,16,25,11.30
2016,02,28,16,26,11.30
2016,02,28,16,27,6.40
2016,02,28,16,28,8.10
2016,02,28,16,29,9.60
2016,02,28,16,30,3.20
2016,02,28,16,31,1.60
2016,02,28,16,32,6.40
2016,02,28,16,33,8.10
2016,02,28,16,34,11.30
2016,02,28,16,35,11.30
2016,02,28,16,36,9.60
2016,02,28,16,37,8.10
2016,02,28,16,38,6.40
2016,02,28,16,39,9.60
2016,02,28,16,40,11.30
2016,02,28,16,41,8.10
2016,02,28,16,42,8.10
2016,02,28,16,43,3.20
2016,02,28,16,44,8.10
2016,02,28,16,45,8.10
2016,02,28,16,46,9.60
2016,02,28,16,47,3.20
2016,02,28,16,48,6.40
2016,02,28,16,49,9.60
2016,02,28,16,50,8.10
2016,02,28,16,51,8.10
2016,02,28,16,52,9.60
2016,02,28,16,53,8.10
2016,02,28,16,54,8.10
2016,02,28,16,55,8.10
2016,02,28,16,56,1.60
2016,02,28,16,57,3.20
2016,02,28,16,58,6.40
2016,02,28,16,59,8.10
2016,02,28,17,00,6.40
2016,02,28,17,01,6.40
2016,02,28,17,02,9.60
2016,02,28,17,03,6.40
2016,02,28,17,04,3.20
2016,02,28,17,06,1.60
2016,02,28,17,07,3.20
2016,02,28,17,08,1.60
2016,02,28,17,09,3.20
2016,02,28,17,10,4.80
2016,02,28,17,11,4.80
2016,02,28,17,12,3.20
2016,02,28,17,13,1.60
2016,02,28,17,14,6.40
2016,02,28,17,15,9.60
2016,02,28,17,16,8.10
2016,02,28,17,17,6.40
2016,02,28,17,18,9.60
2016,02,28,17,19,3.20
2016,02,28,17,20,11.30
2016,02,28,17,21,6.40
2016,02,28,17,22,8.10
2016,02,28,17,23,1.60
2016,02,28,17,24,6.40
2016,02,28,17,25,11.30
2016,02,28,17,26,9.60
2016,02,28,17,27,9.60
2016,02,28,17,28,8.10
2016,02,28,17,29,8.10
2016,02,28,17,30,6.40
2016,02,28,17,31,1.60
2016,02,28,17,32,8.10
2016,02,28,17,33,8.10
2016,02,28,17,34,8.10
2016,02,28,17,35,8.10
2016,02,28,17,36,11.30
2016,02,28,17,37,9.60
2016,02,28,17,38,4.80
2016,02,28,17,39,6.40
2016,02,28,17,40,12.90
2016,02,28,17,41,8.10
2016,02,28,17,42,6.40
2016,02,28,17,43,12.90
2016,02,28,17,44,9.60
2016,02,28,17,45,6.40
2016,02,28,17,46,1.60
2016,02,28,17,47,6.40
2016,02,28,17,48,8.10
2016,02,28,17,49,3.20
2016,02,28,17,50,3.20
2016,02,28,17,51,3.20
2016,02,28,17,52,8.10
2016,02,28,17,53,12.90
2016,02,28,17,54,4.80
2016,02,28,17,55,3.20
2016,02,28,17,56,3.20
2016,02,28,17,57,3.20
2016,02,28,17,58,4.80
2016,02,28,17,59,9.60
2016,02,28,18,00,9.60
2016,02,28,18,01,8.10
2016,02,28,18,02,12.90
2016,02,28,18,03,8.10
2016,02,28,18,04,6.40
2016,02,28,18,05,6.40
2016,02,28,18,06,8.10
2016,02,28,18,07,8.10
2016,02,28,18,08,8.10
2016,02,28,18,09,8.10
2016,02,28,18,10,6.40
2016,02,28,18,11,6.40
2016,02,28,18,12,11.30
2016,02,28,18,13,11.30
2016,02,28,18,14,9.60
2016,02,28,18,15,11.30
2016,02,28,18,16,9.60
2016,02,28,18,17,14.50
2016,02,28,18,18,16.10
2016,02,28,18,19,19.30
2016,02,28,18,20,9.60
2016,02,28,18,21,8.10
2016,02,28,18,22,11.30
2016,02,28,18,23,12.90
2016,02,28,18,24,6.40
2016,02,28,18,25,6.40
2016,02,28,18,26,11.30
2016,02,28,18,27,4.80
2016,02,28,18,28,9.60
2016,02,28,18,29,9.60
2016,02,28,18,30,11.30
2016,02,28,18,31,11.30
2016,02,28,18,32,16.10
2016,02,28,18,33,14.50
2016,02,28,18,34,16.10
2016,02,28,18,35,11.30
2016,02,28,18,36,19.30
2016,02,28,18,37,11.30
2016,02,28,18,38,11.30
2016,02,28,18,39,12.90
2016,02,28,18,40,12.90
2016,02,28,18,41,9.60
2016,02,28,18,42,11.30
2016,02,28,18,43,8.10
2016,02,28,18,44,12.90
2016,02,28,18,45,12.90
2016,02,28,18,46,8.10
2016,02,28,18,47,20.90
2016,02,28,18,48,9.60
2016,02,28,18,49,9.60
2016,02,28,18,50,12.90
2016,02,28,18,51,12.90
2016,02,28,18,52,9.60
2016,02,28,18,53,9.60
2016,02,28,18,54,16.10
2016,02,28,18,55,16.10
2016,02,28,18,56,12.90
2016,02,28,18,57,9.60
2016,02,28,18,58,12.90
2016,02,28,18,59,9.60
2016,02,28,19,00,22.50
2016,02,28,19,01,9.60
2016,02,28,19,02,22.50
2016,02,28,19,03,14.50
2016,02,28,19,04,9.60
2016,02,28,19,05,19.30
2016,02,28,19,06,17.70
2016,02,28,19,07,12.90
2016,02,28,19,08,12.90
2016,02,28,19,09,8.10
2016,02,28,19,10,8.10
2016,02,28,19,11,17.70
2016,02,28,19,12,17.70
2016,02,28,19,13,9.60
2016,02,28,19,14,14.50
2016,02,28,19,15,20.90
2016,02,28,19,16,19.30
2016,02,28,19,17,16.10
2016,02,28,19,18,12.90
2016,02,28,19,19,11.30
2016,02,28,19,20,12.90
2016,02,28,19,21,20.90
2016,02,28,19,22,9.60
2016,02,28,19,23,19.30
2016,02,28,19,24,17.70
2016,02,28,19,25,12.90
2016,02,28,19,26,12.90
2016,02,28,19,27,17.70
2016,02,28,19,28,12.90
2016,02,28,19,29,16.10
2016,02,28,19,30,22.50
2016,02,28,19,31,17.70
2016,02,28,19,32,20.90
2016,02,28,19,33,12.90
2016,02,28,19,34,14.50
2016,02,28,19,35,14.50
2016,02,28,19,36,8.10
2016,02,28,19,37,8.10
2016,02,28,19,38,14.50
2016,02,28,19,39,12.90
2016,02,28,19,40,17.70
2016,02,28,19,41,9.60
2016,02,28,19,42,16.10
2016,02,28,19,43,8.10
2016,02,28,19,44,12.90
2016,02,28,19,45,14.50
2016,02,28,19,46,9.60
2016,02,28,19,47,8.10
2016,02,28,19,48,8.10
2016,02,28,19,49,8.10
2016,02,28,19,50,4.80
2016,02,28,19,51,6.40
2016,02,28,19,52,9.60
2016,02,28,19,53,11.30
2016,02,28,19,54,9.60
2016,02,28,19,55,9.60
2016,02,28,19,56,12.90
2016,02,28,19,57,8.10
2016,02,28,19,58,8.10
2016,02,28,19,59,9.60
2016,02,28,20,00,8.10
2016,02,28,20,01,9.60
2016,02,28,20,02,3.20
2016,02,28,20,03,11.30
2016,02,28,20,04,8.10
2016,02,28,20,05,8.10
2016,02,28,20,06,16.10
2016,02,28,20,07,8.10
2016,02,28,20,08,12.90
2016,02,28,20,09,17.70
2016,02,28,20,10,19.30
2016,02,28,20,11,9.60
2016,02,28,20,12,11.30
2016,02,28,20,13,12.90
2016,02,28,20,14,14.50
2016,02,28,20,15,12.90